Wind_Speed
18 17 17 18 19 19 18 17 18 19 20 20 19 18 17 17 17 16 15 14 13 12 11 10 10 11 12 12 11 11 10 9 9 9 8 8 8 9 9 10 10 11 12 13 13 12 12 12 12 12 12 12 12 12 13 12 12 12 12 12 13 14 16 18 21 21 19 20 20 18 18 18 16 16 16 17 18 18 18 19 20 22 23 23 23
19 17 17 19 19 19 19 18 18 18 20 20 20 19 19 18 18 18 17 16 14 13 12 11 11 11 11 12 12 12 11 11 10 9 9 8 8 9 9 9 10 11 12 13 13 13 12 12 13 13 13 13 13 13 13 13 13 13 13 13 14 15 16 17 20 21 21 21 20 19 19 18 17 18 17 17 18 18 19 20 20 22 24 24 23
22 21 20 19 19 20 20 20 19 18 19 20 20 20 20 19 19 19 18 17 16 15 14 13 12 12 12 12 12 12 12 12 11 10 10 9 9 9 9 9 10 11 12 13 14 14 13 13 13 14 14 14 14 14 14 14 14 14 14 14 15 15 15 16 18 20 21 21 21 20 20 19 18 18 18 18 18 19 20 20 20 21 22 24 24
24 23 22 21 20 20 20 20 20 20 19 19 19 20 21 21 20 20 19 18 17 17 16 15 14 13 13 12 12 13 12 12 11 11 11 10 10 10 9 9 9 10 11 12 13 14 13 13 13 13 14 15 15 15 15 14 14 14 14 14 14 14 14 14 15 17 18 19 19 19 19 19 18 18 19 19 19 20 20 20 21 21 20 22 24
25 23 23 23 23 22 20 20 20 21 21 20 19 19 20 21 21 21 20 19 19 18 17 17 16 15 14 13 12 13 13 13 12 12 12 11 11 11 10 10 9 9 10 11 12 13 13 13 13 13 13 14 14 14 15 14 15 15 14 14 14 14 14 14 14 14 15 15 16 16 17 17 17 18 18 19 19 19 21 21 22 22 21 22 23
24 24 24 26 26 24 22 22 21 20 21 21 20 20 20 21 21 22 22 21 21 20 19 18 17 16 15 14 14 13 14 14 13 13 13 13 12 12 12 11 11 11 10 11 11 11 11 12 12 12 12 12 13 14 14 14 15 15 15 15 15 15 15 14 14 14 14 14 14 15 15 15 16 17 17 18 19 19 20 21 21 22 22 22 24
24 24 25 26 26 25 25 25 23 21 21 21 21 21 22 22 22 22 21 21 23 23 22 20 18 17 16 15 15 15 15 15 15 14 14 14 14 14 13 12 12 12 12 11 11 11 11 11 12 12 12 12 12 13 14 14 14 15 15 16 16 16 16 15 15 15 15 15 15 14 14 15 16 17 17 18 19 19 20 20 20 21 20 21 22
23 23 24 26 26 26 28 29 29 27 24 22 21 22 23 23 23 23 21 21 22 23 23 22 20 19 17 16 16 16 16 16 16 16 15 15 15 14 14 14 13 13 13 13 13 13 13 13 13 13 13 12 13 13 14 15 15 15 15 15 16 17 17 17 16 16 16 16 15 15 15 16 17 17 18 19 19 20 20 21 21 21 20 20 21
23 22 23 25 27 28 30 30 30 29 26 25 24 23 23 23 24 25 24 22 21 21 22 22 22 21 19 18 18 17 17 17 17 17 16 16 16 15 15 15 15 15 14 14 14 15 15 15 15 15 14 14 14 14 15 15 15 15 15 16 16 17 17 17 17 17 17 16 16 16 16 17 17 17 18 19 20 21 21 22 22 22 22 21 21
23 23 23 24 26 28 31 31 31 30 28 28 28 27 26 24 23 24 26 25 24 22 21 22 22 22 20 20 20 19 19 19 18 17 16 16 16 15 15 15 16 17 17 16 17 17 16 16 16 16 16 16 15 16 16 16 16 16 16 17 17 18 18 18 18 18 18 18 17 18 18 18 18 18 19 20 21 22 23 24 25 26 26 24 21
23 24 26 25 24 25 28 30 31 29 27 28 29 30 31 30 27 26 26 26 26 25 23 22 22 22 21 20 19 20 21 21 20 18 17 17 17 17 17 17 16 17 17 18 18 18 18 18 18 18 18 18 17 17 17 17 17 17 18 18 19 19 19 19 19 19 20 20 20 19 20 19 19 19 20 20 22 23 24 26 27 29 29 27 23
23 24 26 26 24 25 26 28 30 29 27 28 29 31 33 32 31 33 30 27 27 26 25 24 23 23 23 22 21 20 20 21 22 20 18 18 19 19 19 19 19 19 18 18 19 19 19 20 20 20 20 20 19 18 18 18 19 19 20 20 21 21 21 21 20 21 21 22 22 21 21 20 20 21 21 22 23 24 25 26 27 28 28 27 24
22 24 25 26 25 26 27 28 30 31 31 30 30 31 33 33 32 32 32 32 31 28 25 25 24 23 23 24 23 21 20 21 22 22 20 19 19 21 21 22 23 22 22 21 20 20 20 20 21 21 21 21 22 22 20 19 20 21 22 22 23 23 23 23 22 22 23 24 24 23 22 22 22 22 23 24 25 26 27 26 26 26 26 26 24
20 22 26 28 28 27 28 28 30 32 31 31 31 31 31 31 31 32 30 29 29 28 26 25 25 24 24 24 24 23 23 22 22 22 22 21 21 21 22 23 25 25 25 25 24 24 23 22 22 22 21 22 23 24 24 22 21 22 23 24 25 24 25 25 25 25 25 25 26 25 24 24 25 25 25 26 27 27 27 26 25 25 24 23 22
18 20 23 26 28 29 29 30 31 32 31 31 31 32 32 31 31 31 31 30 29 29 29 28 27 26 26 26 25 24 24 24 24 22 21 21 22 23 23 24 26 27 27 27 27 27 26 26 25 24 23 22 22 23 26 27 25 23 22 24 26 27 27 27 27 27 28 28 28 28 28 27 28 28 27 28 28 27 26 26 25 25 24 22 22
15 17 19 22 24 26 28 30 30 30 30 30 31 32 33 33 32 31 31 31 31 32 32 30 29 29 29 29 28 28 27 26 26 24 22 21 21 22 23 25 26 27 28 29 29 29 28 28 28 27 25 24 23 22 24 27 29 27 24 23 24 27 29 29 28 28 29 30 30 29 29 29 29 29 28 29 29 28 27 27 25 24 23 23 22
9 11 14 16 18 21 24 27 29 29 30 29 30 31 32 32 32 31 30 30 31 31 31 31 31 31 30 30 31 31 30 29 29 28 27 25 23 23 23 24 26 27 28 29 30 31 31 30 29 29 28 26 25 24 24 25 28 30 29 26 25 27 29 29 29 29 29 29 30 30 29 28 28 28 27 28 27 27 28 27 24 24 25 24 23
6 7 8 10 13 16 19 22 26 28 29 30 31 31 30 31 31 31 30 30 31 31 31 32 32 32 32 32 32 31 29 29 29 29 29 29 29 27 26 25 27 28 28 29 30 32 32 31 30 29 28 27 26 26 27 27 28 29 30 30 29 28 28 28 29 29 29 29 29 29 28 27 27 27 27 27 27 27 28 27 25 25 27 26 25
8 8 8 8 9 11 14 16 20 24 27 29 31 31 31 31 31 31 32 33 34 33 33 34 34 34 34 33 33 32 31 29 29 28 28 28 28 28 28 28 29 29 30 30 31 32 33 33 32 32 31 29 27 27 27 29 30 30 30 32 32 31 29 29 29 29 29 30 30 29 29 28 28 29 29 29 29 29 30 29 27 27 27 26 25
11 11 12 11 11 11 12 12 14 17 20 24 27 29 31 31 32 33 34 35 35 34 33 34 34 34 35 35 34 33 33 31 30 28 27 27 27 27 28 28 28 29 30 31 32 33 34 34 34 34 33 33 31 30 29 30 30 31 31 32 33 31 30 32 32 31 31 32 32 32 31 30 30 30 29 29 29 28 28 28 27 27 27 26 25
15 14 15 15 14 14 14 13 13 12 14 17 20 23 27 30 32 33 35 36 36 36 35 35 34 34 35 36 35 35 34 33 31 31 29 27 27 28 28 27 26 25 26 29 31 33 34 34 35 35 36 36 36 34 33 32 32 33 33 33 32 31 31 33 34 34 34 34 34 34 34 33 32 31 29 28 27 26 26 25 25 26 27 27 27
19 18 17 17 17 17 17 16 15 14 13 13 13 14 18 22 25 29 32 34 37 38 38 36 35 35 35 36 36 35 34 32 32 32 32 30 29 28 28 27 25 25 26 28 30 31 32 32 32 34 36 37 37 37 36 36 36 35 34 33 33 33 34 35 36 36 37 36 36 37 36 35 34 32 30 27 25 24 24 23 23 24 26 27 27
22 22 21 21 20 20 20 19 18 18 17 16 14 13 12 12 14 18 23 27 31 35 37 37 36 35 35 36 36 36 35 34 32 32 32 32 31 30 29 28 27 28 29 29 30 31 31 31 32 34 35 36 36 36 37 38 39 37 35 35 34 34 35 37 38 39 39 39 39 39 38 37 35 33 31 29 27 26 25 25 24 24 25 25 26
25 24 24 24 23 23 23 22 21 20 19 19 18 16 13 11 10 10 13 18 23 28 32 36 36 35 35 35 35 35 35 35 33 31 31 31 31 30 30 29 28 29 29 28 28 29 29 30 33 33 33 33 33 33 35 37 39 38 37 36 36 35 37 39 40 41 41 41 41 40 39 38 36 34 32 31 30 29 29 29 28 27 26 25 26
26 26 26 26 26 25 25 25 25 23 21 20 20 18 16 14 11 9 9 13 17 22 27 32 34 35 35 36 36 35 35 35 35 33 31 31 30 30 30 29 29 29 27 24 23 23 23 25 28 30 31 32 31 30 30 32 35 38 38 38 37 37 38 39 40 41 43 43 43 41 40 38 37 36 34 33 33 32 30 30 29 28 29 28 28
27 27 27 27 27 27 27 28 28 27 25 23 22 21 19 17 15 13 11 11 13 16 21 26 30 34 36 37 37 36 35 35 36 35 33 32 31 30 30 29 29 28 25 19 17 17 18 19 22 25 27 28 28 28 28 29 32 35 37 39 39 39 38 38 39 42 44 44 44 43 40 38 36 35 35 34 34 32 30 29 28 28 28 29 30
28 29 28 28 27 27 29 30 30 30 29 27 25 25 23 21 19 17 15 13 12 13 16 20 25 29 34 37 38 37 36 35 35 36 35 35 34 32 31 30 29 27 24 19 17 17 18 20 22 24 26 27 27 28 31 32 32 32 34 38 39 38 38 38 40 42 44 45 44 42 39 37 35 33 32 32 32 30 28 28 28 27 27 28 30
30 30 31 30 27 26 28 31 32 31 31 29 28 27 26 25 23 22 20 18 16 15 15 18 21 25 29 33 36 36 35 35 35 36 36 36 36 35 33 32 31 29 26 22 21 21 23 25 26 27 29 30 30 31 32 33 33 32 32 35 38 38 38 39 41 42 43 44 44 42 39 36 34 32 30 30 30 28 28 28 28 28 28 29 31
31 32 33 33 30 27 28 31 32 32 31 31 30 29 28 27 26 25 25 24 22 19 17 18 19 22 25 28 32 34 35 35 36 36 34 34 36 37 36 35 34 33 30 27 25 24 26 28 29 30 32 34 35 34 32 32 33 33 32 34 37 38 38 38 40 42 44 45 45 44 41 38 35 32 31 30 29 28 28 29 29 29 29 31 33
31 32 33 34 33 32 31 30 30 30 31 32 31 30 29 28 28 28 27 27 26 24 22 20 21 21 22 25 29 33 35 36 37 37 34 33 35 38 38 38 37 35 33 31 30 28 28 30 31 32 35 38 38 36 33 32 34 34 33 35 38 39 39 39 40 41 44 46 47 46 44 41 37 35 33 32 30 30 31 31 31 32 32 33 34
29 31 32 34 35 35 33 31 29 29 30 31 32 31 29 28 29 29 29 29 29 28 26 25 24 23 23 24 27 30 34 37 39 39 36 35 35 37 38 39 38 37 35 34 33 30 30 32 32 31 34 38 38 36 35 35 35 35 35 36 38 40 40 39 39 42 45 47 49 49 48 45 41 37 35 35 33 33 34 34 35 35 35 35 35
27 29 30 32 34 35 34 32 31 30 30 31 32 33 31 29 28 28 29 30 30 30 29 28 28 27 26 25 26 28 31 35 38 39 40 39 38 37 37 38 39 38 38 37 35 33 32 32 32 31 33 36 37 36 37 37 37 36 36 36 37 39 39 39 42 46 48 50 51 51 49 47 45 42 39 37 36 35 35 36 36 37 37 37 36
26 27 29 30 32 33 33 33 32 31 31 31 32 33 32 30 29 29 29 30 31 31 31 30 30 30 29 27 26 26 28 32 35 38 40 41 41 40 39 39 39 38 39 39 38 36 34 31 30 32 34 35 35 37 39 39 38 38 37 37 38 40 41 42 46 49 52 55 55 50 43 40 41 42 41 39 39 38 37 37 38 38 38 38 38
26 26 28 30 31 31 31 32 32 32 32 31 31 32 32 32 32 31 30 30 31 32 32 32 32 32 31 30 28 28 28 30 32 35 38 40 42 42 42 42 41 39 40 41 41 40 36 32 30 32 34 33 32 34 36 37 35 34 35 37 39 41 43 45 47 49 53 56 54 47 40 35 35 37 39 40 40 40 40 39 39 39 39 39 38
27 27 28 30 31 31 30 30 32 32 32 31 31 32 33 34 34 34 33 31 31 33 34 35 35 35 34 33 32 31 29 29 30 32 34 36 39 41 42 44 44 42 41 42 44 43 39 34 30 31 33 33 30 29 30 31 31 31 32 33 36 40 43 45 46 48 52 53 49 44 39 35 33 34 37 38 39 39 39 39 38 38 38 37 37
28 28 29 30 31 32 32 31 31 32 32 31 31 33 34 34 35 36 36 34 33 33 34 36 37 37 37 37 36 34 31 29 30 32 33 34 36 38 39 42 45 45 43 43 44 45 43 39 34 31 32 33 31 29 27 27 30 34 37 38 40 41 42 44 47 50 52 52 49 44 39 36 34 34 35 36 37 37 37 37 36 36 36 35 34
29 29 30 31 32 32 33 33 33 32 32 32 32 33 34 35 36 37 38 37 36 35 35 36 38 39 39 39 40 38 34 31 32 34 35 35 36 36 37 39 42 44 44 43 44 45 47 45 41 37 35 36 37 37 37 36 36 39 44 46 46 45 44 45 49 53 54 54 52 46 40 36 36 35 34 34 35 36 35 34 33 33 33 32 31
30 30 31 32 33 34 34 34 34 33 33 33 34 34 34 34 36 37 38 39 38 38 37 37 38 39 41 41 41 39 37 35 34 35 35 36 38 38 38 39 40 42 43 44 44 46 47 48 48 44 42 41 42 43 45 45 42 43 47 49 48 46 46 46 48 51 53 53 52 47 40 37 37 38 37 36 35 35 36 36 35 34 33 31 30
30 31 32 33 34 34 34 34 34 34 34 34 35 35 34 34 35 37 39 39 39 39 39 39 39 40 42 43 42 40 38 37 37 36 35 36 37 39 41 41 42 43 44 44 44 45 46 47 49 49 48 48 48 48 48 48 47 47 49 50 48 46 45 44 44 45 47 49 49 47 42 39 37 36 36 36 36 36 38 39 39 38 37 35 34
29 30 31 32 32 33 33 33 33 34 34 34 35 36 35 34 34 36 38 39 39 39 39 40 40 41 43 44 43 41 40 39 39 39 38 36 36 38 40 42 44 45 45 45 45 45 45 46 47 48 48 49 49 50 51 50 49 48 48 48 46 44 43 42 42 41 41 44 46 45 42 39 37 35 34 34 35 36 37 38 37 38 39 39 38
29 29 30 30 31 32 32 33 33 33 33 34 35 35 35 34 34 35 37 39 40 39 38 38 39 41 43 45 44 43 41 41 40 40 39 38 37 36 37 40 43 45 46 46 47 47 47 47 46 46 46 47 47 48 50 50 50 49 50 49 46 43 42 42 42 41 40 42 44 43 40 38 38 37 37 38 39 40 40 40 39 39 39 40 41
29 30 31 31 31 31 32 32 32 31 32 33 34 34 34 33 33 34 36 37 38 39 38 37 38 40 43 45 45 44 43 42 42 41 41 40 39 37 36 37 40 43 45 46 48 48 49 49 48 47 46 46 46 47 48 49 49 50 50 49 48 46 44 43 43 42 42 43 44 43 40 39 40 40 42 44 45 44 42 41 41 41 42 43 45
29 30 31 32 32 32 32 32 32 32 31 32 32 32 32 32 32 34 35 36 37 38 38 37 37 39 41 43 44 44 44 43 42 42 42 42 41 39 38 37 39 40 42 44 46 48 48 48 50 50 48 46 45 45 47 48 49 50 50 49 48 46 45 42 41 40 41 42 42 40 39 40 40 40 40 42 43 42 40 39 39 41 43 44 46
28 29 30 31 33 33 32 32 33 33 33 32 31 31 30 31 32 33 34 35 36 37 37 37 37 38 39 40 42 44 45 44 42 41 43 44 43 42 40 39 39 39 40 41 43 45 45 46 48 50 50 49 47 46 46 47 49 50 50 49 48 46 43 41 40 39 39 40 40 40 39 39 38 37 37 37 38 39 40 40 40 42 44 46 46
28 29 29 30 31 32 33 33 33 34 34 33 33 32 31 31 32 32 34 34 35 36 37 37 37 37 38 38 39 42 44 44 42 41 41 43 44 45 44 42 40 40 40 40 40 41 42 42 44 47 49 50 50 49 48 47 48 49 50 49 48 46 45 44 43 42 41 42 43 43 43 42 42 41 41 40 40 42 43 44 44 44 45 47 47
29 29 30 31 31 32 32 33 33 33 34 34 34 34 34 33 33 32 32 33 34 35 36 37 37 37 37 37 38 39 41 42 42 42 41 40 42 44 46 46 44 42 42 42 41 40 39 39 41 43 46 48 49 50 49 48 47 47 48 49 48 47 46 46 46 45 45 46 46 46 46 47 46 46 46 46 46 47 49 50 50 49 49 49 49
30 30 30 31 32 32 32 33 33 34 34 34 34 34 35 35 35 34 33 33 33 34 36 37 37 37 37 37 37 37 38 39 41 42 41 40 40 41 43 46 47 45 44 44 44 43 41 40 39 40 41 43 44 46 47 46 46 46 47 48 48 48 46 46 45 45 46 46 47 47 47 47 47 47 48 49 50 51 53 54 54 53 53 54 54
30 31 31 31 32 33 33 33 33 34 34 34 34 34 34 35 35 35 35 34 34 34 35 36 37 37 37 37 37 36 35 36 38 39 40 40 39 39 40 43 45 46 46 46 46 46 46 44 42 41 40 41 41 42 42 42 43 44 46 47 47 47 46 46 46 46 46 47 48 48 48 48 48 48 48 49 50 52 53 55 55 54 54 55 56
31 31 31 32 32 32 32 32 32 32 33 33 33 33 34 34 34 35 35 35 35 35 35 36 36 36 37 37 37 35 34 34 35 37 38 39 38 38 39 40 42 44 46 47 47 48 48 48 47 46 44 43 42 41 41 40 40 42 44 46 46 46 46 46 47 47 48 49 50 51 51 51 50 50 50 50 51 52 53 54 55 54 54 54 55
31 31 31 32 32 33 33 33 33 32 32 32 33 33 33 33 33 33 34 35 36 36 36 36 36 36 36 36 36 35 34 34 34 35 36 36 37 37 38 38 39 41 43 45 46 48 49 49 50 50 49 47 45 43 42 41 41 42 43 45 46 46 46 46 47 48 49 51 51 52 52 52 51 51 51 51 52 53 54 55 55 54 53 53 53
31 32 32 32 33 34 34 34 35 34 34 34 34 34 34 34 33 32 32 34 35 36 37 37 37 36 36 35 35 35 34 34 34 34 34 35 36 36 37 37 37 38 40 42 44 46 48 50 50 51 51 51 49 48 46 44 43 43 43 44 45 46 47 47 48 49 50 51 51 52 52 52 51 51 51 51 52 53 53 54 55 55 54 54 53
Wind_Direction
214 219 221 224 226 229 230 227 224 223 222 221 220 221 223 223 224 225 224 225 225 222 223 224 223 223 222 222 221 221 220 220 222 222 215 211 212 218 222 221 219 218 218 219 218 215 216 219 222 223 220 220 221 220 220 222 225 226 224 226 228 230 233 234 236 237 236 239 245 250 256 260 265 268 274 283 291 298 305 310 314 316 316 318 322
209 214 219 223 225 225 228 230 229 227 225 223 221 222 224 225 226 228 229 230 231 228 226 226 227 229 230 226 224 224 224 223 225 226 222 218 219 223 227 226 224 225 226 227 227 224 224 225 227 229 228 225 224 224 227 229 230 231 229 230 231 233 236 237 237 237 237 240 244 248 253 258 263 268 274 282 289 296 302 306 311 313 316 318 322
211 211 212 217 224 225 225 229 231 231 231 228 225 224 224 225 227 230 232 233 234 233 232 230 228 230 232 232 231 227 225 226 228 228 226 226 226 227 231 231 230 232 231 232 233 231 231 231 232 233 232 230 229 229 232 236 238 239 236 236 238 238 239 240 239 239 239 241 245 249 254 260 264 270 276 281 288 293 297 302 307 312 317 319 320
219 219 214 211 217 222 223 227 230 233 235 233 231 228 227 227 227 230 234 235 237 236 236 235 232 232 233 232 233 233 230 229 230 231 230 231 233 234 237 239 238 237 235 234 236 236 236 235 235 237 236 234 234 234 236 239 243 246 245 245 246 247 249 249 247 246 245 245 247 250 256 261 265 270 276 282 289 293 299 305 308 311 315 316 318
228 228 223 217 218 219 219 223 228 232 236 238 237 234 233 232 230 230 232 234 238 238 238 238 235 233 235 234 233 234 235 235 235 235 235 235 235 236 240 244 245 245 242 240 241 240 240 239 238 239 240 238 238 239 240 243 247 251 252 252 251 251 255 255 252 251 251 251 252 254 258 264 268 274 280 286 293 299 304 308 310 311 314 316 318
231 230 228 225 222 219 217 219 222 228 235 239 239 238 237 237 235 232 231 232 237 238 237 239 239 236 235 236 236 235 235 239 240 239 239 238 237 237 238 241 245 249 250 249 248 245 243 243 243 244 243 243 244 246 246 246 248 251 254 254 254 253 254 255 254 254 256 258 259 260 264 270 275 281 286 291 295 298 301 302 304 307 311 314 314
232 234 236 233 227 221 220 220 218 222 230 236 240 240 239 241 242 239 234 230 235 239 238 237 239 240 238 237 238 238 237 240 242 242 242 241 240 240 242 244 244 248 252 254 253 251 248 246 246 247 248 248 250 252 253 253 254 255 255 255 255 254 254 255 255 256 258 260 263 266 271 275 279 283 287 290 293 295 298 299 300 301 305 309 309
237 238 239 238 233 227 225 223 219 216 218 224 234 241 242 242 243 245 244 237 233 237 242 242 239 238 239 239 239 239 240 241 243 244 245 246 246 245 245 249 250 251 252 254 255 254 252 251 251 252 253 255 256 256 257 259 260 260 259 259 258 257 257 256 257 258 260 261 264 268 270 273 277 281 286 290 293 297 298 296 295 297 301 306 307
237 238 238 240 241 238 235 232 227 221 217 216 222 232 241 245 244 245 246 245 241 237 239 244 244 241 238 238 241 242 242 243 245 247 248 250 254 255 253 254 256 258 257 256 256 255 254 255 256 258 259 259 260 260 260 262 265 266 266 266 264 262 261 260 260 260 261 262 264 266 269 271 275 280 284 288 291 294 294 293 294 299 304 308 311
235 238 238 240 245 246 241 238 233 226 220 218 218 221 226 232 240 245 245 245 246 244 240 241 246 248 243 238 238 243 246 247 246 247 252 255 258 261 262 261 260 261 262 261 259 258 258 257 258 260 261 261 261 263 265 266 269 271 271 271 270 269 267 265 265 266 267 267 267 268 271 274 278 282 285 288 292 296 298 299 303 306 308 311 315
239 242 240 238 241 245 244 243 242 235 226 224 227 228 224 219 219 227 238 245 248 249 246 242 243 249 252 247 242 241 246 251 251 248 248 252 258 262 265 267 266 264 264 264 263 262 261 261 261 261 262 262 261 262 266 269 271 272 273 273 273 272 271 270 270 270 271 272 273 274 275 278 282 284 287 291 294 296 297 299 303 305 307 311 317
235 241 245 243 239 240 243 245 248 246 239 233 234 238 242 238 225 216 216 226 238 245 248 248 246 245 248 251 251 247 244 247 252 254 251 248 252 257 261 265 268 268 268 269 268 267 266 265 265 265 267 268 267 263 261 263 266 269 269 270 271 272 272 272 272 272 273 275 276 276 278 281 283 285 288 291 291 292 293 295 299 301 302 307 314
235 238 243 245 243 242 242 242 244 246 246 244 239 238 244 251 248 236 222 215 219 226 235 245 250 248 245 246 251 255 252 248 247 250 252 250 248 250 254 259 263 266 269 270 270 271 270 269 268 268 269 272 273 272 266 260 260 264 267 268 270 271 273 274 274 273 273 275 276 277 279 282 283 284 286 288 288 289 290 292 294 295 298 303 309
246 242 240 240 240 240 240 240 241 244 246 248 246 241 241 247 255 257 249 237 229 226 227 234 240 243 243 241 244 251 257 258 255 251 250 250 250 249 251 254 258 261 264 267 268 270 271 271 270 270 269 269 271 274 274 270 263 261 264 269 271 271 272 273 274 274 274 275 276 278 280 282 282 284 284 285 285 286 287 289 290 291 295 300 305
250 249 246 242 241 240 239 238 240 243 245 247 248 248 248 249 251 255 255 252 244 237 234 235 236 238 240 242 244 246 248 253 257 256 250 247 248 251 252 254 256 259 262 264 266 267 268 270 271 272 272 270 268 270 274 276 274 266 261 263 268 270 270 269 271 273 274 274 276 278 279 281 282 283 284 283 283 283 284 286 287 290 294 298 301
241 247 250 251 250 248 245 243 241 242 244 246 247 249 251 252 253 254 254 252 247 240 238 240 240 241 243 245 248 250 250 250 255 259 257 251 247 248 250 254 256 259 261 263 265 267 267 267 269 271 273 273 272 270 270 274 277 276 269 261 260 265 268 270 271 272 272 274 275 276 276 277 278 279 279 280 280 282 283 283 284 289 291 293 296
236 241 245 250 253 253 253 251 247 244 244 245 246 249 251 252 253 254 257 258 255 250 247 246 246 246 246 247 249 250 251 252 255 259 262 261 258 252 250 251 253 256 259 261 263 266 267 267 268 269 271 273 275 275 273 271 273 276 276 271 264 261 263 268 271 272 273 274 275 276 276 275 275 275 275 276 278 281 282 283 287 292 292 292 296
256 255 255 253 252 253 254 254 252 249 247 246 247 249 251 251 252 254 256 257 254 251 249 250 251 250 250 252 255 255 255 255 255 256 260 263 265 264 260 257 256 255 256 258 261 264 266 268 269 270 271 272 272 273 274 273 272 273 276 277 275 269 265 268 271 273 274 274 274 274 274 274 274 274 275 276 278 280 280 283 289 291 292 294 298
262 267 273 273 268 263 259 257 254 252 250 249 249 251 253 253 253 256 258 255 251 248 247 249 250 251 252 254 256 258 260 261 259 258 259 260 263 266 267 266 264 262 260 260 261 263 265 268 270 271 272 273 271 270 270 271 272 273 273 275 276 274 273 275 276 276 277 277 275 273 272 271 271 271 272 274 276 278 281 286 290 291 291 294 296
258 262 267 271 275 277 274 270 263 258 256 254 252 252 254 254 253 254 256 256 253 248 247 249 250 251 254 256 257 258 260 261 261 262 261 259 259 261 263 265 266 265 264 264 265 265 266 267 268 269 271 271 271 270 268 267 269 271 272 272 273 275 277 279 279 278 277 277 276 275 273 270 268 267 268 269 271 275 279 284 287 289 289 290 290
255 256 261 265 269 272 276 278 277 272 269 263 258 256 255 255 255 253 254 257 257 252 248 249 251 252 254 256 258 260 261 260 261 261 260 260 260 259 260 262 264 263 262 263 265 267 268 270 271 271 271 270 269 268 266 264 263 264 265 267 270 273 275 276 276 276 275 275 274 274 273 271 270 267 266 267 269 273 277 280 282 284 285 286 288
254 254 256 259 264 267 270 274 276 277 279 278 274 269 262 260 261 258 256 259 261 257 252 251 253 253 254 256 258 261 263 263 263 262 261 261 261 260 261 262 262 260 258 258 260 262 265 268 271 271 270 270 271 271 270 267 263 261 260 261 264 267 269 271 271 272 272 272 271 271 271 271 271 270 270 271 272 273 275 275 275 276 278 281 283
254 254 255 256 258 262 265 269 271 272 276 279 280 281 278 275 273 265 257 257 258 257 254 253 253 253 254 256 258 261 264 265 265 265 264 263 261 260 261 261 260 260 260 260 261 262 262 263 266 269 269 271 273 275 274 272 268 265 262 260 259 260 263 265 266 267 268 268 268 268 269 269 270 271 273 276 278 279 279 277 272 267 266 268 271
257 256 256 256 256 258 260 263 266 268 271 274 276 278 283 288 291 281 263 252 248 248 248 249 251 253 254 256 257 259 262 263 264 266 266 264 262 261 260 260 259 259 260 261 263 265 267 268 271 272 272 274 276 277 278 276 273 269 265 263 261 259 258 260 262 264 265 265 265 266 267 268 269 271 273 276 278 280 280 280 278 275 272 270 269
261 259 257 257 257 257 257 258 260 262 264 268 271 274 277 281 285 288 277 261 250 245 244 246 249 251 252 255 256 256 258 259 262 264 265 265 264 263 260 257 256 258 259 259 262 267 274 279 281 278 275 274 275 277 277 277 276 273 269 264 261 259 257 258 260 262 263 264 265 265 266 267 269 272 274 276 276 276 275 274 275 276 277 278 277
265 263 260 258 257 257 257 257 258 259 259 260 264 268 270 271 273 276 278 276 268 259 252 250 250 251 252 253 254 254 255 257 259 261 262 264 264 263 259 254 251 254 255 255 258 266 277 287 291 290 286 280 277 276 272 269 271 272 270 266 262 258 258 259 259 261 262 264 266 267 268 269 269 270 271 271 271 270 270 270 271 272 273 276 278
270 268 265 261 258 258 258 258 257 257 257 257 258 261 263 264 266 268 269 269 271 269 263 256 253 251 251 251 252 253 253 255 258 260 261 263 263 261 257 252 250 250 250 250 255 265 275 285 292 295 295 292 290 288 282 273 268 268 269 268 262 257 257 258 259 260 262 263 265 267 269 269 269 268 267 267 267 267 267 267 268 268 270 272 274
273 273 272 268 264 260 259 259 259 258 258 257 255 256 258 259 260 262 264 264 263 265 267 263 258 254 252 250 249 249 249 250 254 258 259 261 261 259 256 255 254 252 249 250 255 262 268 274 280 285 287 288 290 293 290 281 272 267 266 264 260 256 256 257 258 260 262 263 265 267 268 268 269 268 267 266 265 265 265 264 265 266 267 268 269
274 275 275 274 272 268 262 261 261 261 260 259 256 254 254 255 254 255 258 261 261 260 262 265 264 260 257 254 251 248 246 246 249 252 255 258 259 257 255 255 256 255 254 253 255 259 263 267 272 276 279 280 282 286 290 287 278 270 264 259 255 253 253 255 257 260 261 262 264 265 266 267 267 266 266 264 263 263 263 262 262 264 264 264 265
273 274 276 277 277 274 270 267 266 265 263 262 260 256 253 252 251 250 250 254 257 257 256 258 262 263 261 259 256 253 249 247 247 249 249 251 255 257 257 257 257 257 256 254 254 257 262 266 269 273 276 278 277 277 282 285 282 277 270 261 255 255 255 254 256 258 260 261 263 264 264 265 264 263 263 263 263 263 264 264 264 264 264 263 265
273 273 274 276 277 277 276 275 272 269 267 265 264 260 255 251 249 248 247 247 250 253 252 251 255 260 261 261 260 259 256 253 251 250 248 247 249 253 257 260 260 260 257 253 252 254 258 262 266 269 273 275 274 272 275 279 281 282 279 270 262 260 260 258 260 262 262 262 263 263 264 264 265 265 264 264 265 265 265 265 266 266 266 267 267
276 275 275 277 278 280 281 280 277 274 271 268 266 264 260 254 249 247 246 245 245 248 249 248 249 253 256 258 259 260 260 259 257 254 252 249 248 249 253 257 260 261 260 256 253 253 256 258 260 263 267 269 269 267 269 271 272 276 282 280 273 268 265 266 270 271 269 267 266 264 264 264 265 266 266 265 265 264 263 264 264 264 265 266 267
282 283 282 280 280 281 282 282 280 278 275 271 269 268 266 260 253 248 245 244 244 244 246 247 247 248 250 253 256 257 258 260 261 260 257 255 253 250 249 250 254 257 259 259 256 254 254 255 255 256 261 265 265 264 264 263 262 265 273 279 278 274 271 272 273 272 271 270 268 265 263 263 263 263 264 264 263 262 262 261 262 262 263 263 264
282 283 284 284 284 284 284 283 282 280 278 276 273 271 269 265 260 254 248 245 243 243 244 245 246 248 248 248 251 254 255 257 259 261 261 259 257 253 249 247 249 251 253 256 257 256 254 251 249 252 256 260 261 259 256 255 255 259 265 269 271 271 270 268 267 266 268 267 264 260 261 263 262 259 258 259 260 260 261 261 262 263 263 264 264
281 281 282 284 286 287 287 285 283 282 281 278 273 270 269 267 264 261 256 251 246 244 243 243 244 247 249 249 250 250 251 254 258 262 263 263 262 258 253 249 250 250 249 250 254 257 255 249 244 247 252 254 252 247 245 245 249 254 259 263 266 269 270 268 265 264 263 261 257 255 258 261 262 260 257 256 256 257 258 260 261 262 262 264 265
282 282 282 283 284 286 287 287 286 284 282 279 274 270 268 267 266 265 262 258 253 249 245 244 243 244 246 249 251 249 248 251 257 261 262 263 264 262 258 253 251 250 248 247 250 254 255 250 244 241 243 243 238 236 240 249 254 256 258 260 262 264 265 265 264 263 259 255 253 254 256 257 260 261 261 259 258 258 258 258 259 259 260 262 263
282 282 282 282 282 283 283 285 286 286 283 280 277 273 269 266 266 266 265 263 259 255 251 249 247 244 243 246 249 249 248 249 253 256 258 260 261 262 261 258 255 252 250 248 250 252 253 252 248 242 237 235 234 237 246 258 263 261 260 262 263 262 262 261 260 259 256 253 252 253 255 259 262 264 264 263 262 262 262 262 262 263 264 265 267
281 281 281 281 282 283 284 285 286 287 285 281 279 276 272 268 265 265 266 266 263 260 257 254 252 250 247 244 245 248 249 249 250 252 255 257 259 260 261 261 261 258 255 252 252 254 255 254 252 248 241 238 239 243 249 256 259 258 258 261 263 262 260 260 258 256 255 255 255 254 257 262 264 265 268 269 269 271 274 274 273 272 271 271 273
279 280 281 283 284 285 286 286 286 285 284 282 279 277 275 272 267 264 264 266 266 265 262 259 258 257 253 248 244 246 249 250 251 251 252 254 257 259 259 260 261 261 260 257 256 256 257 257 256 254 250 247 246 247 249 252 254 256 258 261 263 261 258 259 262 263 262 263 262 261 262 265 267 271 278 283 283 284 283 281 281 282 281 280 279
280 281 283 284 285 286 286 286 285 283 282 281 279 277 276 274 270 265 263 264 266 268 266 264 263 262 259 253 248 247 248 250 251 252 252 252 254 257 259 259 259 259 260 261 261 259 258 257 257 257 257 255 252 251 250 251 253 255 257 259 262 263 261 263 267 268 265 264 267 268 269 272 276 282 288 290 289 285 281 279 279 281 282 282 282
281 282 283 284 285 285 286 285 285 284 282 281 279 278 277 276 272 268 264 263 265 268 269 267 267 266 262 257 253 251 251 252 252 253 252 252 253 255 257 259 260 259 259 260 261 261 260 258 256 256 257 257 255 253 253 254 254 254 256 258 260 263 263 265 268 268 264 264 268 272 273 274 276 279 283 286 286 284 280 277 276 279 281 281 280
281 282 282 283 283 284 285 285 285 284 283 281 279 278 278 276 274 271 267 265 265 267 269 268 268 268 266 261 257 256 256 256 256 255 254 253 253 254 255 256 259 260 260 259 259 259 260 259 257 254 254 256 256 254 254 254 254 255 256 258 260 262 264 265 267 268 267 266 268 271 272 271 271 273 277 281 284 283 280 276 277 281 284 282 280
280 281 281 282 281 281 283 284 283 282 281 280 279 279 278 276 274 272 270 268 266 267 268 269 268 268 268 266 263 260 259 260 259 258 256 254 254 254 253 253 255 258 260 260 259 259 259 259 257 255 253 254 256 255 254 254 254 255 256 258 260 262 263 262 262 263 266 268 271 272 273 273 272 271 273 275 278 279 278 276 276 279 281 280 280
282 282 283 283 282 280 279 280 280 280 278 277 277 277 276 275 273 272 271 270 268 268 269 269 268 267 268 269 267 264 261 261 263 262 260 257 256 255 255 254 252 252 255 258 259 259 258 258 258 257 255 254 255 256 255 255 254 254 255 256 257 258 258 258 260 262 265 268 270 272 273 274 273 271 271 271 272 275 277 276 276 276 277 278 280
285 285 284 283 282 280 278 277 278 279 278 275 273 272 272 272 272 271 271 270 270 270 269 269 269 268 268 268 268 266 264 263 265 266 264 261 258 257 257 256 254 252 251 253 255 257 257 256 256 257 257 256 255 255 256 256 256 254 254 254 254 254 256 258 261 263 265 267 269 271 274 275 275 274 273 273 273 273 274 275 276 277 277 278 279
286 284 282 282 282 281 280 278 277 278 279 277 274 271 269 269 270 270 271 271 270 270 270 270 269 269 268 267 267 267 266 266 266 267 267 265 262 259 258 258 258 256 253 251 251 252 253 253 253 253 254 255 254 254 255 256 256 255 255 254 254 254 256 258 260 262 265 267 269 271 272 273 275 275 276 275 275 274 274 274 275 276 276 277 278
282 281 281 281 281 281 281 280 278 277 277 277 276 273 271 269 269 268 269 269 270 270 270 270 269 269 268 267 267 267 267 267 267 268 268 268 266 263 260 259 260 260 258 255 252 251 251 251 251 251 251 252 253 253 254 255 255 256 255 255 255 256 257 258 259 261 263 266 268 270 271 272 273 275 276 276 276 277 277 277 277 277 276 276 276
281 280 279 279 280 280 281 281 280 278 277 276 276 275 273 271 269 268 267 267 267 268 269 269 269 269 268 267 266 266 266 266 267 268 269 269 269 268 265 262 261 262 262 260 257 254 253 253 253 252 250 250 251 253 254 255 257 257 257 257 257 259 260 260 261 262 264 266 268 270 271 272 273 274 275 275 276 276 277 278 279 279 279 278 277
282 280 278 277 278 279 280 280 280 279 278 277 276 275 274 272 270 269 267 266 265 265 267 268 269 269 268 267 266 265 265 265 266 267 268 269 270 270 269 266 264 263 263 263 261 259 257 256 255 254 252 251 250 252 254 256 259 261 261 260 261 263 264 265 265 266 268 270 271 272 272 272 272 273 273 274 273 273 274 275 277 278 280 280 280
282 280 279 277 276 277 277 278 279 279 279 278 277 276 275 273 271 269 268 266 265 264 264 266 267 268 268 267 266 265 264 264 265 266 268 269 270 271 271 269 267 266 265 265 264 262 261 260 258 257 256 255 254 254 254 255 258 260 262 263 264 266 267 269 270 270 271 273 274 274 274 274 273 273 273 272 272 271 271 272 274 276 278 279 280
282 280 279 278 277 276 276 276 276 277 278 278 278 277 277 275 273 270 267 265 264 263 262 263 265 266 267 266 265 264 264 265 266 266 267 268 269 270 271 271 270 269 268 267 266 265 264 263 262 260 259 259 258 257 255 255 256 259 261 264 266 267 268 269 270 272 273 274 274 274 274 274 274 274 273 273 273 272 272 272 273 275 276 278 279
Height
3206 3208 3209 3211 3212 3213 3214 3216 3217 3218 3219 3220 3221 3223 3223 3224 3225 3226 3227 3227 3228 3229 3230 3231 3232 3233 3234 3235 3236 3237 3238 3239 3240 3242 3242 3243 3244 3245 3246 3246 3247 3248 3249 3250 3251 3252 3252 3253 3254 3254 3255 3256 3257 3258 3258 3259 3259 3260 3260 3261 3261 3262 3262 3263 3263 3264 3265 3265 3265 3266 3266 3267 3267 3267 3267 3267 3266 3266 3266 3265 3264 3263 3262 3262 3261
3205 3207 3209 3210 3211 3213 3214 3215 3216 3217 3218 3219 3220 3222 3223 3224 3224 3225 3226 3227 3228 3229 3230 3231 3232 3233 3234 3234 3235 3237 3238 3239 3240 3241 3242 3243 3244 3244 3245 3246 3247 3248 3249 3250 3251 3251 3252 3253 3253 3254 3255 3256 3256 3257 3258 3258 3259 3259 3259 3260 3260 3260 3261 3261 3262 3262 3263 3263 3264 3265 3265 3265 3266 3266 3266 3266 3265 3265 3264 3264 3263 3261 3260 3259 3259
3204 3205 3207 3209 3211 3212 3213 3214 3215 3216 3217 3218 3219 3221 3222 3223 3224 3224 3225 3226 3227 3228 3229 3230 3231 3232 3233 3234 3235 3236 3237 3238 3239 3241 3242 3243 3243 3244 3245 3246 3247 3247 3248 3249 3250 3251 3252 3253 3253 3254 3254 3255 3256 3257 3257 3258 3258 3259 3259 3259 3259 3259 3260 3260 3260 3261 3261 3262 3263 3263 3263 3264 3264 3264 3264 3264 3264 3264 3263 3262 3262 3261 3259 3257 3256
3202 3204 3206 3207 3209 3211 3212 3213 3215 3216 3217 3218 3219 3220 3221 3222 3223 3224 3225 3226 3226 3227 3228 3229 3230 3231 3232 3233 3234 3235 3236 3238 3239 3240 3241 3242 3243 3244 3245 3245 3246 3247 3248 3249 3250 3251 3251 3252 3253 3253 3254 3255 3256 3256 3257 3257 3258 3258 3258 3259 3259 3259 3259 3259 3260 3260 3260 3261 3261 3262 3262 3262 3262 3263 3262 3262 3262 3262 3261 3260 3260 3259 3258 3257 3255
3201 3203 3205 3206 3207 3209 3211 3212 3214 3215 3216 3218 3219 3220 3221 3221 3222 3223 3224 3225 3225 3226 3227 3228 3229 3230 3231 3233 3234 3235 3236 3237 3238 3239 3240 3241 3243 3243 3244 3245 3246 3247 3248 3248 3249 3250 3251 3251 3252 3253 3253 3254 3255 3256 3256 3257 3257 3257 3258 3258 3258 3258 3258 3259 3259 3259 3259 3260 3260 3260 3260 3261 3261 3261 3261 3261 3261 3260 3259 3258 3257 3256 3256 3255 3253
3199 3201 3203 3204 3205 3207 3208 3210 3212 3214 3216 3217 3218 3220 3220 3221 3221 3222 3223 3224 3224 3225 3226 3227 3228 3229 3231 3232 3233 3234 3235 3236 3237 3238 3239 3241 3242 3243 3244 3244 3245 3246 3247 3248 3248 3249 3250 3251 3251 3252 3253 3254 3254 3255 3256 3256 3256 3257 3257 3257 3257 3258 3258 3258 3258 3258 3258 3259 3259 3259 3259 3259 3259 3260 3260 3259 3259 3258 3258 3257 3256 3255 3254 3253 3252
3197 3199 3201 3202 3204 3205 3206 3208 3210 3212 3214 3217 3218 3219 3220 3220 3221 3221 3222 3223 3224 3224 3225 3226 3227 3228 3230 3231 3232 3233 3234 3235 3236 3237 3238 3239 3241 3242 3243 3244 3245 3246 3246 3247 3248 3248 3249 3250 3250 3251 3252 3253 3254 3254 3255 3255 3255 3256 3256 3256 3257 3257 3257 3257 3257 3257 3257 3258 3258 3258 3258 3258 3258 3258 3258 3258 3257 3256 3256 3255 3254 3253 3253 3252 3251
3194 3197 3199 3201 3202 3203 3204 3205 3206 3208 3211 3214 3218 3219 3219 3220 3221 3221 3222 3223 3223 3224 3224 3225 3226 3227 3229 3230 3231 3232 3233 3234 3235 3236 3238 3238 3239 3241 3242 3243 3244 3245 3246 3246 3247 3248 3248 3249 3250 3250 3251 3252 3253 3253 3254 3254 3254 3255 3255 3255 3255 3256 3256 3256 3256 3256 3256 3257 3257 3257 3257 3257 3257 3257 3256 3256 3255 3254 3254 3253 3252 3251 3251 3250 3249
3192 3196 3198 3199 3201 3202 3202 3203 3205 3208 3210 3211 3213 3217 3218 3220 3221 3221 3221 3222 3223 3224 3224 3224 3225 3226 3228 3229 3230 3231 3232 3233 3234 3236 3237 3238 3239 3240 3241 3242 3243 3244 3244 3245 3246 3247 3247 3248 3248 3249 3250 3251 3252 3252 3252 3253 3253 3254 3254 3254 3254 3254 3255 3255 3255 3255 3255 3255 3255 3255 3255 3255 3255 3255 3255 3254 3253 3253 3252 3250 3249 3249 3248 3247 3247
3190 3193 3195 3196 3198 3199 3201 3203 3205 3208 3210 3209 3210 3212 3214 3216 3219 3221 3222 3221 3221 3222 3224 3224 3224 3225 3226 3228 3229 3230 3231 3232 3233 3235 3236 3237 3238 3239 3240 3241 3242 3242 3243 3244 3245 3245 3246 3247 3247 3248 3249 3250 3250 3251 3251 3252 3252 3252 3253 3253 3253 3253 3253 3253 3254 3254 3254 3254 3254 3254 3254 3254 3254 3254 3253 3252 3251 3250 3249 3247 3246 3245 3244 3244 3244
3189 3191 3192 3194 3196 3198 3199 3202 3204 3204 3204 3205 3208 3211 3211 3210 3211 3216 3220 3222 3222 3222 3222 3223 3224 3225 3225 3226 3228 3229 3230 3231 3232 3234 3235 3236 3237 3238 3238 3239 3240 3241 3241 3242 3243 3244 3245 3245 3246 3246 3247 3248 3249 3249 3250 3250 3251 3251 3251 3251 3252 3252 3252 3252 3252 3252 3252 3252 3252 3252 3252 3252 3252 3252 3251 3251 3250 3248 3247 3246 3244 3243 3242 3241 3241
3187 3188 3189 3191 3195 3196 3197 3200 3201 3200 3198 3200 3204 3210 3213 3212 3209 3208 3210 3214 3218 3221 3222 3222 3223 3224 3224 3225 3225 3227 3229 3230 3231 3232 3234 3235 3236 3236 3237 3237 3238 3239 3239 3240 3241 3242 3243 3243 3244 3244 3245 3245 3246 3247 3248 3249 3249 3249 3250 3250 3250 3250 3250 3250 3251 3251 3251 3250 3250 3250 3250 3251 3251 3250 3250 3249 3248 3247 3246 3245 3244 3242 3240 3239 3239
3185 3186 3186 3189 3191 3193 3194 3195 3196 3197 3198 3201 3203 3206 3210 3213 3213 3212 3209 3208 3209 3214 3218 3220 3221 3223 3223 3224 3224 3225 3226 3228 3229 3230 3231 3233 3234 3234 3235 3235 3236 3236 3237 3238 3239 3239 3240 3241 3242 3242 3243 3243 3244 3244 3245 3246 3247 3247 3247 3248 3248 3248 3248 3249 3249 3249 3249 3249 3248 3248 3249 3249 3249 3249 3248 3247 3246 3245 3244 3243 3242 3240 3239 3238 3237
3184 3184 3185 3186 3187 3188 3190 3191 3192 3193 3196 3201 3202 3203 3206 3209 3212 3214 3215 3214 3213 3214 3215 3216 3218 3219 3220 3221 3222 3223 3223 3224 3226 3227 3228 3229 3231 3232 3232 3233 3233 3233 3234 3235 3236 3236 3237 3238 3239 3240 3241 3241 3242 3242 3242 3243 3244 3245 3245 3246 3246 3246 3246 3246 3247 3247 3247 3247 3246 3246 3247 3247 3246 3246 3246 3245 3244 3243 3242 3241 3240 3238 3237 3236 3235
3182 3183 3183 3183 3184 3185 3186 3188 3189 3190 3193 3196 3198 3200 3203 3205 3207 3209 3211 3213 3215 3214 3214 3214 3214 3215 3216 3217 3217 3219 3220 3220 3220 3222 3224 3226 3227 3228 3229 3230 3230 3230 3231 3232 3232 3233 3234 3235 3235 3236 3237 3238 3240 3240 3240 3239 3240 3241 3242 3243 3243 3243 3244 3244 3244 3245 3244 3244 3244 3244 3244 3244 3244 3243 3243 3242 3241 3240 3239 3238 3237 3236 3235 3234 3233
3179 3180 3181 3181 3181 3182 3183 3185 3186 3188 3190 3193 3195 3197 3199 3201 3203 3204 3206 3207 3208 3209 3211 3211 3212 3212 3213 3213 3214 3215 3217 3217 3217 3218 3220 3222 3223 3225 3226 3227 3227 3227 3228 3229 3229 3230 3231 3231 3232 3233 3234 3235 3236 3237 3238 3238 3237 3237 3238 3240 3240 3240 3240 3241 3242 3242 3242 3241 3241 3241 3241 3241 3241 3240 3240 3239 3238 3237 3236 3235 3234 3234 3233 3232 3231
3177 3178 3178 3179 3179 3179 3180 3182 3183 3185 3188 3189 3191 3193 3195 3197 3198 3200 3202 3203 3205 3207 3208 3209 3209 3210 3210 3210 3211 3212 3214 3216 3217 3217 3218 3219 3220 3221 3222 3223 3224 3224 3225 3225 3226 3226 3227 3228 3229 3229 3230 3231 3232 3233 3235 3235 3235 3234 3234 3235 3236 3236 3237 3238 3238 3239 3239 3239 3238 3238 3238 3238 3238 3237 3237 3236 3235 3235 3233 3232 3232 3231 3230 3229 3229
3175 3176 3176 3177 3177 3177 3178 3179 3181 3183 3185 3186 3188 3189 3191 3193 3195 3196 3197 3197 3199 3201 3203 3205 3206 3207 3208 3208 3208 3209 3211 3212 3213 3214 3215 3216 3217 3219 3220 3220 3220 3221 3221 3222 3222 3223 3223 3224 3225 3226 3226 3228 3229 3230 3230 3231 3231 3231 3231 3231 3232 3232 3233 3234 3234 3235 3235 3235 3235 3235 3234 3234 3234 3234 3233 3233 3232 3232 3230 3229 3230 3229 3227 3225 3225
3173 3174 3174 3175 3175 3175 3176 3177 3179 3180 3181 3182 3184 3187 3188 3190 3191 3193 3193 3193 3193 3195 3197 3199 3201 3202 3204 3204 3205 3206 3207 3208 3209 3210 3211 3212 3213 3214 3215 3216 3217 3218 3218 3219 3219 3219 3220 3221 3222 3222 3223 3224 3225 3226 3226 3226 3226 3227 3228 3228 3228 3228 3229 3230 3231 3231 3231 3230 3230 3230 3230 3230 3230 3230 3229 3229 3229 3228 3227 3227 3227 3226 3224 3223 3223
3172 3172 3173 3173 3173 3174 3174 3175 3177 3178 3178 3179 3181 3183 3184 3186 3188 3189 3190 3190 3190 3192 3194 3195 3196 3198 3200 3201 3202 3203 3203 3204 3205 3206 3207 3208 3208 3209 3210 3210 3212 3213 3215 3215 3216 3216 3217 3217 3218 3218 3219 3219 3220 3221 3221 3221 3222 3222 3223 3223 3223 3224 3226 3227 3226 3227 3227 3226 3225 3225 3225 3226 3226 3225 3225 3226 3226 3226 3225 3225 3224 3223 3222 3221 3220
3169 3170 3171 3171 3171 3172 3172 3173 3174 3175 3176 3177 3178 3179 3180 3181 3183 3185 3187 3188 3189 3191 3192 3192 3193 3194 3195 3197 3198 3199 3199 3201 3202 3202 3203 3204 3204 3205 3205 3206 3207 3208 3209 3210 3211 3211 3212 3213 3214 3215 3215 3215 3215 3215 3216 3216 3216 3216 3217 3218 3219 3221 3222 3222 3222 3222 3222 3222 3222 3221 3220 3220 3220 3221 3221 3222 3222 3223 3223 3222 3222 3221 3219 3218 3218
3167 3167 3168 3168 3169 3169 3169 3170 3171 3172 3174 3174 3175 3176 3177 3178 3179 3180 3183 3185 3187 3188 3190 3190 3190 3191 3192 3193 3193 3194 3196 3197 3198 3198 3199 3199 3200 3200 3201 3202 3203 3203 3204 3204 3204 3205 3206 3208 3208 3209 3210 3211 3211 3212 3212 3212 3211 3211 3211 3212 3214 3216 3217 3217 3217 3218 3217 3218 3218 3217 3216 3216 3216 3216 3217 3217 3218 3219 3219 3219 3219 3218 3217 3215 3215
3164 3164 3165 3165 3166 3166 3166 3167 3168 3169 3170 3171 3172 3173 3174 3175 3176 3176 3178 3180 3182 3185 3187 3188 3188 3188 3188 3189 3189 3190 3192 3193 3194 3194 3195 3195 3196 3196 3197 3198 3198 3198 3198 3199 3200 3200 3201 3201 3202 3202 3204 3206 3207 3208 3208 3208 3208 3208 3208 3208 3209 3210 3211 3211 3211 3212 3212 3213 3212 3212 3212 3213 3212 3212 3213 3213 3213 3214 3214 3214 3214 3214 3214 3213 3212
3160 3161 3162 3162 3162 3163 3163 3163 3164 3165 3167 3167 3168 3170 3171 3172 3173 3173 3174 3175 3177 3179 3181 3182 3183 3184 3184 3185 3185 3186 3187 3187 3189 3190 3190 3191 3192 3192 3193 3193 3194 3193 3194 3195 3196 3197 3197 3197 3198 3199 3200 3201 3202 3203 3203 3204 3205 3205 3205 3204 3205 3205 3205 3205 3206 3207 3207 3207 3207 3207 3208 3209 3209 3209 3209 3210 3210 3209 3209 3209 3208 3208 3208 3208 3208
3156 3157 3158 3158 3159 3159 3160 3160 3160 3161 3163 3163 3164 3166 3168 3169 3170 3171 3171 3172 3173 3174 3175 3176 3178 3178 3179 3179 3180 3181 3181 3182 3183 3184 3185 3186 3187 3188 3188 3189 3189 3189 3189 3191 3192 3193 3193 3194 3194 3195 3196 3196 3197 3197 3197 3198 3200 3201 3201 3201 3201 3200 3199 3199 3201 3201 3201 3201 3202 3202 3203 3204 3205 3205 3206 3206 3206 3205 3205 3204 3204 3204 3203 3202 3202
3152 3153 3154 3154 3155 3155 3156 3156 3157 3158 3159 3160 3161 3162 3164 3165 3167 3168 3168 3169 3170 3170 3171 3172 3172 3173 3173 3173 3174 3175 3176 3177 3178 3179 3181 3182 3183 3184 3184 3185 3185 3185 3186 3187 3188 3189 3189 3190 3190 3191 3192 3192 3191 3191 3191 3191 3192 3193 3195 3196 3196 3196 3195 3196 3196 3196 3196 3196 3197 3197 3198 3200 3201 3201 3202 3201 3200 3200 3201 3200 3200 3200 3199 3198 3197
3147 3148 3149 3150 3151 3152 3152 3152 3152 3154 3155 3156 3157 3158 3160 3161 3163 3164 3165 3166 3166 3166 3167 3167 3168 3168 3168 3168 3168 3169 3171 3172 3174 3175 3176 3177 3179 3180 3180 3180 3181 3181 3182 3183 3184 3184 3184 3184 3185 3186 3187 3188 3187 3187 3186 3186 3186 3186 3188 3191 3191 3192 3192 3192 3191 3191 3191 3191 3191 3192 3193 3194 3195 3196 3196 3196 3196 3196 3197 3196 3195 3195 3196 3195 3193
3143 3143 3144 3145 3147 3148 3148 3147 3148 3150 3151 3152 3153 3154 3156 3157 3159 3160 3161 3161 3162 3163 3163 3163 3163 3163 3163 3163 3164 3164 3165 3167 3169 3170 3171 3172 3173 3174 3175 3176 3177 3177 3178 3179 3179 3178 3178 3179 3180 3181 3182 3183 3183 3183 3182 3182 3182 3181 3182 3184 3186 3187 3187 3187 3187 3186 3186 3186 3187 3187 3188 3189 3190 3190 3191 3191 3191 3191 3192 3192 3191 3191 3191 3191 3189
3139 3139 3139 3140 3141 3143 3143 3143 3144 3146 3147 3148 3149 3150 3152 3153 3154 3156 3156 3157 3158 3159 3160 3159 3159 3159 3159 3159 3159 3160 3161 3162 3163 3164 3166 3167 3168 3168 3170 3171 3172 3172 3174 3174 3173 3173 3174 3174 3175 3176 3177 3178 3178 3179 3178 3178 3177 3177 3177 3179 3181 3182 3182 3182 3182 3182 3182 3182 3182 3182 3183 3183 3184 3185 3186 3185 3185 3186 3187 3187 3186 3186 3186 3186 3184
3135 3135 3135 3135 3136 3137 3137 3138 3140 3141 3142 3143 3144 3145 3147 3148 3150 3151 3152 3152 3153 3154 3155 3156 3155 3155 3155 3155 3155 3155 3156 3156 3157 3158 3159 3161 3162 3163 3164 3166 3167 3168 3169 3169 3168 3168 3169 3169 3170 3171 3172 3172 3174 3174 3174 3174 3173 3173 3173 3174 3175 3177 3178 3178 3178 3178 3178 3178 3177 3177 3177 3178 3178 3179 3180 3180 3180 3181 3181 3181 3181 3181 3180 3180 3179
3131 3131 3131 3130 3130 3130 3132 3134 3135 3136 3137 3137 3138 3140 3142 3144 3145 3146 3147 3148 3148 3149 3150 3151 3151 3151 3151 3151 3151 3151 3151 3151 3152 3152 3154 3155 3157 3158 3159 3161 3162 3163 3164 3164 3163 3163 3164 3164 3165 3166 3167 3168 3169 3170 3170 3170 3169 3169 3169 3169 3170 3171 3172 3173 3174 3174 3174 3174 3173 3173 3172 3172 3173 3173 3174 3174 3174 3175 3175 3175 3174 3174 3174 3173 3173
3126 3126 3126 3126 3126 3126 3127 3129 3130 3131 3132 3132 3133 3134 3136 3138 3140 3141 3142 3143 3144 3144 3144 3145 3145 3146 3146 3147 3147 3147 3147 3146 3147 3148 3149 3150 3151 3152 3153 3155 3156 3158 3159 3158 3158 3159 3160 3160 3161 3161 3162 3163 3165 3166 3167 3166 3166 3165 3165 3165 3166 3166 3167 3168 3169 3169 3170 3171 3170 3168 3167 3167 3167 3167 3167 3167 3167 3167 3167 3167 3167 3167 3167 3166 3166
3123 3123 3123 3123 3123 3123 3123 3124 3124 3125 3126 3127 3127 3128 3130 3133 3134 3135 3137 3138 3139 3139 3139 3140 3140 3140 3141 3141 3142 3143 3143 3142 3142 3143 3144 3144 3146 3147 3147 3148 3150 3152 3153 3154 3154 3155 3155 3156 3157 3157 3157 3158 3160 3161 3162 3163 3163 3162 3161 3161 3162 3163 3163 3163 3163 3163 3165 3167 3166 3164 3162 3161 3161 3161 3160 3160 3160 3159 3160 3160 3160 3160 3159 3159 3159
3119 3119 3119 3118 3118 3119 3119 3119 3119 3120 3121 3122 3123 3124 3125 3127 3128 3129 3131 3132 3133 3134 3135 3135 3135 3135 3135 3136 3136 3137 3137 3138 3138 3139 3139 3139 3140 3141 3142 3143 3144 3145 3147 3149 3150 3150 3151 3152 3153 3152 3152 3153 3154 3155 3156 3158 3158 3159 3159 3159 3159 3159 3159 3159 3159 3159 3161 3162 3163 3160 3157 3154 3154 3154 3154 3153 3153 3152 3152 3153 3152 3152 3152 3152 3153
3115 3115 3115 3114 3114 3114 3115 3115 3115 3115 3116 3118 3118 3119 3119 3120 3121 3123 3125 3126 3128 3128 3129 3130 3130 3129 3129 3130 3130 3131 3132 3133 3134 3134 3134 3134 3135 3136 3137 3138 3139 3139 3140 3142 3144 3145 3146 3147 3148 3148 3148 3149 3149 3150 3151 3152 3153 3154 3155 3155 3155 3155 3154 3154 3154 3155 3155 3156 3156 3154 3150 3147 3146 3147 3146 3146 3146 3146 3146 3146 3146 3146 3145 3146 3146
3110 3110 3110 3110 3110 3110 3110 3110 3111 3111 3112 3112 3113 3113 3114 3115 3116 3117 3118 3120 3121 3122 3123 3124 3124 3124 3125 3124 3124 3125 3127 3129 3129 3128 3128 3129 3129 3130 3131 3133 3133 3133 3134 3136 3138 3139 3141 3142 3143 3143 3143 3144 3144 3145 3146 3147 3148 3149 3149 3149 3149 3149 3149 3149 3149 3150 3151 3150 3149 3146 3142 3139 3139 3140 3139 3138 3139 3139 3139 3140 3140 3140 3139 3139 3139
3106 3106 3105 3105 3105 3105 3105 3106 3106 3106 3107 3107 3108 3108 3109 3110 3110 3111 3112 3113 3115 3116 3117 3118 3118 3119 3119 3119 3118 3119 3122 3124 3123 3123 3123 3123 3123 3124 3125 3126 3127 3128 3129 3130 3131 3133 3134 3136 3138 3139 3139 3139 3139 3139 3140 3141 3142 3143 3143 3143 3143 3143 3143 3144 3144 3144 3145 3145 3142 3137 3132 3130 3131 3133 3133 3132 3132 3132 3133 3133 3133 3133 3133 3132 3132
3101 3101 3101 3100 3100 3101 3101 3101 3101 3102 3102 3102 3102 3103 3103 3104 3105 3105 3106 3107 3108 3110 3111 3111 3112 3112 3112 3113 3114 3115 3117 3118 3117 3117 3118 3118 3118 3118 3119 3120 3121 3122 3123 3124 3125 3126 3127 3130 3131 3133 3133 3134 3134 3134 3134 3134 3135 3136 3136 3136 3136 3136 3137 3137 3138 3139 3140 3140 3136 3131 3126 3123 3123 3124 3125 3127 3128 3129 3130 3130 3129 3128 3128 3127 3127
3097 3097 3096 3096 3096 3096 3096 3097 3097 3096 3096 3096 3096 3097 3098 3099 3099 3100 3100 3101 3102 3103 3104 3105 3106 3106 3105 3106 3109 3111 3112 3112 3112 3112 3112 3113 3113 3113 3114 3114 3115 3116 3116 3118 3119 3119 3121 3123 3125 3126 3127 3128 3128 3128 3127 3127 3128 3128 3128 3127 3128 3129 3132 3133 3134 3135 3134 3132 3129 3126 3123 3121 3121 3123 3125 3127 3128 3129 3129 3129 3129 3128 3127 3126 3125
3093 3093 3093 3092 3092 3092 3092 3092 3092 3092 3091 3091 3091 3091 3092 3093 3094 3094 3095 3095 3096 3097 3098 3099 3100 3100 3099 3100 3102 3105 3106 3106 3106 3106 3107 3108 3108 3108 3109 3109 3109 3110 3111 3112 3113 3114 3114 3116 3117 3119 3120 3121 3121 3121 3121 3120 3120 3120 3120 3119 3121 3124 3127 3128 3129 3128 3126 3123 3120 3120 3120 3120 3121 3124 3125 3124 3123 3123 3124 3124 3125 3125 3125 3124 3122
3089 3089 3089 3088 3088 3088 3087 3087 3087 3087 3087 3086 3086 3086 3087 3088 3088 3088 3089 3090 3091 3092 3092 3093 3094 3093 3093 3094 3096 3098 3100 3100 3100 3100 3101 3102 3103 3103 3104 3103 3103 3104 3105 3107 3107 3108 3109 3110 3111 3112 3113 3114 3115 3115 3115 3115 3115 3115 3114 3114 3116 3118 3120 3121 3120 3120 3118 3115 3112 3113 3115 3117 3118 3118 3117 3117 3117 3117 3118 3118 3119 3121 3122 3121 3118
3085 3084 3084 3084 3084 3083 3083 3082 3082 3082 3082 3081 3081 3081 3082 3082 3082 3083 3083 3084 3085 3086 3087 3087 3088 3087 3087 3088 3090 3092 3093 3094 3094 3095 3095 3096 3097 3098 3098 3098 3098 3098 3099 3100 3101 3102 3103 3105 3105 3106 3106 3107 3108 3109 3109 3109 3110 3109 3109 3109 3111 3113 3114 3114 3114 3112 3111 3108 3106 3107 3110 3112 3112 3111 3111 3111 3112 3112 3112 3112 3114 3117 3117 3115 3112
3081 3080 3079 3079 3079 3079 3079 3078 3077 3077 3077 3077 3076 3076 3077 3077 3077 3077 3078 3079 3079 3080 3081 3081 3082 3082 3081 3082 3084 3086 3087 3088 3089 3089 3089 3090 3091 3092 3092 3093 3093 3093 3093 3094 3094 3095 3096 3098 3099 3100 3101 3101 3101 3102 3103 3103 3103 3103 3103 3104 3105 3107 3108 3108 3107 3105 3104 3103 3102 3103 3105 3106 3106 3106 3106 3106 3106 3106 3106 3107 3109 3110 3109 3107 3106
3076 3076 3075 3075 3074 3074 3074 3073 3073 3072 3072 3072 3072 3072 3072 3072 3072 3072 3073 3073 3074 3074 3075 3075 3075 3076 3076 3077 3078 3079 3080 3082 3083 3083 3084 3084 3085 3085 3086 3087 3087 3088 3088 3088 3088 3088 3089 3091 3092 3093 3094 3095 3095 3096 3096 3096 3096 3097 3097 3098 3099 3100 3101 3101 3100 3100 3099 3098 3098 3099 3100 3101 3102 3102 3102 3102 3101 3100 3100 3101 3102 3103 3102 3101 3101
3072 3071 3071 3070 3069 3069 3068 3068 3068 3067 3067 3067 3067 3067 3067 3067 3067 3067 3067 3068 3068 3068 3069 3069 3069 3070 3071 3071 3072 3073 3074 3076 3077 3077 3078 3078 3079 3079 3080 3080 3081 3082 3082 3082 3082 3082 3083 3084 3085 3086 3087 3088 3089 3089 3089 3090 3090 3090 3090 3091 3092 3093 3094 3094 3094 3094 3094 3093 3093 3094 3094 3095 3096 3097 3097 3096 3096 3095 3094 3095 3096 3096 3095 3095 3095
3067 3066 3065 3065 3064 3063 3063 3063 3063 3062 3062 3062 3062 3062 3062 3062 3062 3062 3062 3063 3063 3063 3063 3063 3064 3064 3065 3065 3065 3067 3068 3070 3070 3070 3071 3072 3072 3073 3073 3074 3075 3076 3076 3076 3076 3077 3077 3077 3078 3079 3080 3081 3082 3082 3083 3083 3083 3083 3083 3084 3085 3086 3087 3088 3088 3088 3088 3087 3087 3088 3088 3089 3089 3090 3090 3090 3090 3089 3088 3088 3089 3089 3088 3088 3087
3061 3061 3060 3060 3059 3058 3058 3058 3057 3057 3057 3057 3057 3057 3056 3056 3057 3057 3057 3057 3057 3057 3058 3058 3058 3058 3059 3059 3060 3061 3062 3063 3064 3064 3064 3065 3066 3067 3067 3068 3068 3069 3069 3070 3070 3070 3071 3071 3072 3072 3073 3074 3075 3075 3076 3076 3076 3076 3076 3077 3077 3078 3080 3081 3081 3082 3082 3081 3081 3081 3082 3082 3082 3083 3083 3083 3082 3082 3082 3081 3081 3082 3082 3081 3080
3057 3056 3056 3055 3054 3053 3053 3052 3052 3052 3051 3051 3051 3051 3051 3051 3051 3051 3051 3052 3052 3052 3052 3052 3052 3052 3053 3053 3054 3055 3056 3056 3057 3057 3058 3059 3060 3061 3061 3061 3062 3062 3063 3063 3064 3064 3064 3065 3065 3066 3066 3067 3067 3068 3069 3069 3069 3069 3070 3070 3071 3071 3072 3073 3074 3074 3075 3075 3075 3075 3075 3075 3076 3076 3076 3076 3075 3075 3074 3074 3074 3074 3074 3073 3073
3052 3051 3051 3050 3049 3048 3048 3047 3047 3046 3046 3046 3046 3046 3045 3045 3045 3045 3046 3046 3046 3046 3046 3047 3047 3047 3047 3047 3048 3049 3050 3050 3050 3051 3051 3052 3053 3054 3054 3055 3055 3056 3056 3057 3057 3057 3057 3058 3058 3059 3059 3059 3060 3061 3061 3062 3062 3063 3063 3064 3065 3065 3065 3066 3066 3067 3067 3068 3068 3068 3068 3068 3068 3069 3069 3068 3068 3067 3067 3067 3067 3066 3066 3065 3065
3047 3046 3045 3045 3044 3043 3043 3042 3042 3041 3041 3041 3040 3040 3040 3040 3040 3040 3040 3040 3040 3040 3041 3041 3041 3041 3042 3042 3043 3043 3044 3044 3044 3044 3045 3046 3047 3047 3047 3048 3049 3049 3049 3049 3050 3050 3050 3051 3051 3051 3052 3053 3053 3054 3054 3054 3055 3056 3057 3057 3058 3058 3058 3059 3059 3059 3060 3060 3061 3061 3060 3060 3061 3061 3061 3061 3060 3060 3060 3060 3059 3059 3058 3058 3057
3041 3041 3040 3039 3039 3038 3038 3037 3037 3036 3036 3035 3035 3035 3034 3034 3034 3034 3034 3034 3034 3034 3035 3035 3035 3036 3036 3037 3037 3038 3038 3038 3038 3039 3039 3039 3040 3040 3040 3041 3042 3042 3042 3042 3043 3043 3043 3044 3044 3044 3045 3046 3046 3047 3047 3048 3048 3049 3050 3050 3051 3051 3051 3051 3052 3052 3052 3053 3053 3054 3053 3053 3053 3053 3053 3053 3053 3052 3052 3052 3051 3051 3051 3050 3050